CW2434 Weather Reports


Display with metric or nautical units.
time (UTC)temp
F
wind
direction
speed
MPH
gust
MPH
rain 1hr
in
rain 24hr
in
rain mn
in
humidity
%
barometer
mb
20260903053101 64 0 0.0 9.0 0.13 0.22 0.15 95 1016.8
20260903051601 64 0 1.0 9.0 0.12 0.19 0.12 95 1016.9
20260903050054 64 0 0.0 5.0 0.09 0.16 0.09 95 1018.0
20260903044557 64 0 0.0 2.0 0.06 0.13 0.06 94 1018.3
20260903043057 65 0 0.0 8.0 0.02 0.09 0.02 93 1018.7
20260903041601 65 294 0.0 0.0 0.00 0.07 0.00 93 1019.2
20260903034604 64 0 0.0 7.0 0.00 0.07 0.07 92 1018.4
20260903033105 64 0 0.0 3.0 0.00 0.07 0.07 92 1018.5
20260903031555 64 0 0.0 5.0 0.00 0.07 0.07 92 1018.2
20260903030129 64 0 0.0 6.0 0.00 0.07 0.07 91 1018.1
20260903024559 64 0 0.0 5.0 0.00 0.07 0.07 91 1018.5
20260903023058 64 0 0.0 4.0 0.00 0.07 0.07 91 1018.7
20260903021556 64 0 0.0 5.0 0.00 0.07 0.07 91 1019.5
20260903020107 64 0 0.0 4.0 0.00 0.07 0.07 90 1019.7
20260903014557 64 0 0.0 4.0 0.00 0.07 0.07 90 1019.5
20260903013056 64 0 0.0 5.0 0.00 0.07 0.07 90 1019.4
20260903011605 64 0 0.0 5.0 0.00 0.07 0.07 91 1019.3
20260903010100 64 0 0.0 4.0 0.00 0.07 0.07 91 1019.4
20260903004600 64 0 0.0 5.0 0.00 0.07 0.07 90 1019.2
20260903003055 64 211 0.0 5.0 0.00 0.07 0.07 89 1019.2
20260903001610 64 0 0.0 5.0 0.00 0.07 0.07 89 1019.4
20260903000110 64 0 0.0 7.0 0.00 0.07 0.07 88 1019.4
20260902234559 64 195 0.0 8.0 0.00 0.10 0.07 88 1018.9
20260902233102 65 0 2.0 10.0 0.00 0.10 0.07 88 1019.0
20260902231604 65 100 2.0 12.0 0.00 0.10 0.07 88 1019.3
20260902224558 64 0 4.0 10.0 0.00 0.42 0.07 89 1019.5
20260902223051 65 148 1.0 7.0 0.00 0.42 0.07 88 1020.0
20260902221613 65 154 1.0 6.0 0.00 0.42 0.07 87 1020.2
20260902220108 65 182 0.0 5.0 0.00 0.42 0.07 87 1020.5
20260902214554 65 182 1.0 8.0 0.00 0.46 0.07 85 1020.2
20260902213059 65 121 2.0 6.0 0.00 0.46 0.07 85 1020.0
20260902211600 65 131 3.0 10.0 0.00 0.46 0.07 86 1020.0
20260902210053 65 181 1.0 7.0 0.00 0.46 0.07 85 1020.2
20260902204612 65 169 4.0 9.0 0.00 0.46 0.07 85 1020.3
20260902203101 65 109 1.0 10.0 0.00 0.46 0.07 84 1019.9
20260902201604 64 147 3.0 8.0 0.00 0.46 0.07 83 1019.7
20260902200100 64 147 3.0 8.0 0.00 0.46 0.07 84 1020.1
20260902194606 65 189 0.0 8.0 0.00 0.46 0.07 87 1020.2
20260902193059 64 0 0.0 0.0 0.02 0.46 0.07 91 1020.3
20260902191603 63 0 0.0 12.0 0.06 0.46 0.07 91 1020.3
20260902190104 64 0 0.0 4.0 0.07 0.46 0.07 92 1020.2
20260902184642 63 169 0.0 6.0 0.07 0.46 0.07 93 1020.2
20260902183137 63 0 0.0 3.0 0.04 0.43 0.04 93 1020.7
20260902181604 64 0 0.0 0.0 0.01 0.40 0.01 90 1021.5
20260902180056 64 0 0.0 6.0 0.00 0.39 0.00 86 1021.8
20260902174558 65 0 0.0 0.0 0.00 0.39 0.00 85 1021.2
20260902173102 65 0 0.0 5.0 0.00 0.39 0.00 85 1021.0
20260902171616 65 136 0.0 4.0 0.00 0.39 0.00 84 1021.1
20260902170055 65 0 0.0 6.0 0.00 0.39 0.00 84 1021.1
20260902164627 65 122 1.0 6.0 0.00 0.39 0.00 83 1021.2
20260902163057 65 0 0.0 3.0 0.00 0.39 0.00 83 1021.4
20260902161556 65 0 2.0 6.0 0.00 0.39 0.00 85 1021.0
20260902160110 64 0 2.0 8.0 0.00 0.39 0.00 83 1021.0
20260902154600 64 0 0.0 6.0 0.00 0.39 0.00 83 1021.1
20260902153056 64 110 1.0 8.0 0.00 0.39 0.00 83 1021.0
20260902151605 64 0 0.0 8.0 0.00 0.39 0.00 85 1021.2
20260902150058 64 176 0.0 5.0 0.00 0.39 0.00 82 1021.4
20260902144609 64 111 3.0 7.0 0.00 0.39 0.00 84 1021.7
20260902143104 63 0 3.0 9.0 0.00 0.39 0.00 85 1021.4
20260902141558 63 0 0.0 7.0 0.00 0.39 0.00 84 1021.4
20260902134606 63 122 0.0 1.0 0.00 0.48 0.00 86 1021.5
20260902133101 63 0 1.0 5.0 0.00 0.48 0.00 87 1021.3
20260902131613 62 0 0.0 9.0 0.00 0.48 0.00 87 1020.8
20260902130100 62 120 3.0 9.0 0.00 0.48 0.00 88 1020.5
20260902124600 61 143 3.0 10.0 0.00 0.56 0.00 89 1020.7
20260902123059 61 0 0.0 12.0 0.00 0.56 0.00 88 1020.7
20260902121556 61 113 1.0 8.0 0.00 0.56 0.00 88 1020.5
20260902120053 61 0 0.0 4.0 0.00 0.56 0.00 88 1020.6
20260902114619 60 0 0.0 3.0 0.00 0.57 0.00 89 1020.5
20260902113100 60 0 0.0 0.0 0.00 0.57 0.00 90 1020.8
20260902111603 60 0 0.0 3.0 0.00 0.57 0.00 91 1020.9
20260902110104 60 0 0.0 4.0 0.00 0.57 0.00 91 1021.1
20260902104559 60 0 0.0 8.0 0.00 0.57 0.00 91 1020.8
20260902103108 60 0 0.0 4.0 0.00 0.57 0.00 92 1020.6
20260902101600 60 196 0.0 5.0 0.00 0.57 0.00 93 1020.7
20260902100057 60 0 0.0 2.0 0.00 0.57 0.00 94 1020.3
20260902094556 60 0 0.0 0.0 0.00 0.57 0.00 94 1020.3
20260902093057 61 0 0.0 6.0 0.00 0.57 0.00 94 1020.2
20260902091600 61 0 0.0 0.0 0.00 0.57 0.00 95 1020.2
20260902090056 61 0 0.0 0.0 0.00 0.57 0.00 95 1019.9
20260902084557 61 0 0.0 0.0 0.00 0.58 0.00 95 1019.8
20260902083052 61 0 0.0 0.0 0.00 0.58 0.00 95 1019.6
20260902081557 61 0 0.0 0.0 0.00 0.58 0.00 95 1019.5
20260902080058 61 0 0.0 0.0 0.00 0.58 0.00 95 1019.6
20260902074556 61 0 0.0 0.0 0.00 0.58 0.00 95 1019.5
20260902073057 61 0 0.0 0.0 0.00 0.58 0.00 95 1019.5
20260902071605 61 0 0.0 0.0 0.00 0.58 0.00 95 1019.5
20260902070100 61 0 0.0 0.0 0.00 0.58 0.00 95 1019.6
20260902064555 61 0 0.0 0.0 0.00 0.61 0.00 95 1019.5
20260902063106 61 0 0.0 0.0 0.00 0.61 0.00 95 1019.7
20260902061555 61 0 0.0 0.0 0.00 0.61 0.00 94 1019.6
20260902060128 61 0 0.0 0.0 0.00 0.61 0.00 94 1019.8
20260902054604 61 0 0.0 3.0 0.00 0.62 0.00 94 1019.6